Preview of NWS' New Version of Forecast
This preview is not operational and should not be used for support decisions.

Regional Weather Roundup (RWR)

Issued by Raleigh, NC (RAH)

                            
000
ASUS42 KRAH 200710
RWRRAH
NORTH CAROLINA WEATHER ROUNDUP
NATIONAL WEATHER SERVICE RALEIGH NC
300 AM EDT MON MAY 20 2019

NOTE: "FAIR" INDICATES FEW OR NO CLOUDS BELOW 12,000 FEET WITH NO
SIGNIFICANT WEATHER AND/OR OBSTRUCTIONS TO VISIBILITY.

NCZ001-053-055-056-065-067-200800-
WESTERN NORTH CAROLINA
  
CITY           SKY/WX    TMP DP  RH WIND       PRES   REMARKS
ASHEVILLE      FAIR      63  60  90 CALM      30.07S                  
JEFFERSON      FAIR      65  57  76 W3        30.09S                  
MORGANTON      FAIR      62  58  86 CALM      30.06S                  
HICKORY        FAIR      70  59  68 S12       30.02S                  
WILKESBORO     NOT AVBL                                               
RUTHERFORDTON  FAIR      66  55  68 CALM      30.04S                  
MOUNT AIRY     FAIR      70  60  69 CALM      30.04S                  
BOONE          FAIR      57  57  97 CALM      30.10F                  
$$
 
NCZ021-022-025-041-071-084-088-200800-
CENTRAL NORTH CAROLINA
  
CITY           SKY/WX    TMP DP  RH WIND       PRES   REMARKS
CHARLOTTE      FAIR      72  66  81 S10       30.03S                  
GREENSBORO     FAIR      70  66  87 SW9       30.01S                  
WINSTON-SALEM  FAIR      72  65  78 S7        30.03R                  
RALEIGH-DURHAM FAIR      71  66  84 SW12      30.03R                  
FORT BRAGG     FAIR      72  70  95 SW7       30.04R                  
FAYETTEVILLE   FAIR      71  69  93 S9        30.04S                  
BURLINGTON     FAIR      73  65  75 S8        30.01F                  
ROXBORO        FAIR      70  64  83 S9        30.03S                  
HENDERSON      FAIR      68  63  82 S10       30.02R                  
LOUISBURG      FAIR      70  64  83 S8        30.05R                  
LAURINBURG     FAIR      70  67  90 SW5       30.05S FOG              
$$
 
NCZ011-015-027-028-043-044-047-080-103-200800-
NORTHEASTERN NORTH CAROLINA
  
CITY           SKY/WX    TMP DP  RH WIND       PRES   REMARKS
ROCKY MT-WILSO FAIR      71  67  87 SW8       30.03S                  
GREENVILLE     FAIR      70  64  83 SW7       30.05S                  
WASHINGTON     FAIR      71  67  88 S7        30.04S                  
ELIZABETH CITY FAIR      73  66  78 SW13      30.02S                  
MANTEO         FAIR      72  67  85 SW12      30.04S                  
CAPE HATTERAS  FAIR      72  71  97 SW7       30.05F                  
$$
 
NCZ078-087-090-091-093-098-101-200800-
SOUTHEASTERN NORTH CAROLINA
  
CITY           SKY/WX    TMP DP  RH WIND       PRES   REMARKS
GOLDSBORO      FAIR      71  67  87 SW6       30.03R                  
KINSTON        FAIR      71  67  87 SW7       30.05S                  
KENANSVILLE    FAIR      70  68  94 CALM      30.06R                  
NEW BERN       FAIR      70  69  97 SW5       30.05F                  
CHERRY POINT   FAIR      71  66  84 SW6       30.06F                  
BEAUFORT       FAIR      74  68  81 SW12      30.05F                  
JACKSONVILLE   FAIR      71  68  90 S3        30.04F                  
WILMINGTON     FAIR      71  66  84 S6        30.05F                  
$$